[[{"header":{"parameterUnit":"m.s-1","parameterCategory":1,"la1":30.2991,"la2":30.254,"lo1":-89.0895,"lo2":-89.0444,"dy":0.0017,"dx":0.0017,"nx":28,"ny":28,"refTime":"2024-02-03T09:00:00:Z","depth":0,"parameterNumber":2,"parameterNumberName":"U-component_of_WINDS"},"data":[0,0,0,0,0,0,0,0,0,0,0,0,0,0,0,0,0,0,0,0,0,0,0,0,0,0,0,0,0,0,0,0,0,0,0,0,0,0,0,0,0,0,0,0,0,0,0,0,0,0,0,0,0,0,0,0,0,0,-0.2741,-0.2743,0,-0.2901,-0.2903,-0.2905,-0.3006,-0.3007,-0.3007,-0.3008,-0.3166,-0.3169,-0.3173,0,0,0,0,0,0,0,0,0,0,0,0,0,-0.2517,-0.2521,-0.2741,-0.2743,-0.2745,-0.2901,-0.2903,-0.2905,-0.3006,-0.3007,-0.3007,-0.3008,-0.3164,-0.3169,-0.3173,0,0,0,0,0,0,0,0,0,0,0,0,0,-0.2639,-0.2522,-0.2741,-0.2814,-0.2823,-0.29,-0.2903,-0.2906,-0.3006,-0.3007,-0.3008,-0.3008,-0.3163,-0.3168,-0.3174,-0.3189,0,0,-0.319,-0.3193,0,0,0,0,0,0,0,0,-0.2632,-0.2647,-0.2802,-0.2809,-0.2819,-0.2935,-0.2882,-0.3001,-0.3005,-0.2936,-0.3008,-0.3009,-0.3088,-0.3099,-0.3127,-0.3197,-0.3204,-0.3191,-0.3194,-0.3197,-0.3198,0,0,0,0,0,0,0,-0.2624,-0.2641,-0.2804,-0.2804,-0.2814,-0.2837,-0.2856,-0.2905,-0.3005,-0.2942,-0.295,-0.2968,-0.3093,-0.3122,-0.3132,-0.3206,-0.3191,-0.3196,-0.3199,-0.3201,-0.3296,-0.3295,0,0,0,0,0,0,-0.2605,-0.2633,-0.2799,-0.2809,-0.2726,-0.2841,-0.2861,-0.2896,-0.3004,-0.3022,-0.2967,-0.2972,-0.3112,-0.3125,-0.3138,-0.3163,-0.3197,-0.3202,-0.3205,-0.3296,-0.3295,-0.3295,0,0,0,0,0,0,-0.2599,-0.2618,-0.2793,-0.2724,-0.2748,-0.2844,-0.2882,-0.2899,-0.2929,-0.3023,-0.3041,-0.2979,-0.3113,-0.313,-0.3176,-0.317,-0.3204,-0.3209,-0.3297,-0.3296,-0.3295,-0.3213,0,0,0,0,0,0,-0.2592,-0.2616,-0.2624,-0.2723,-0.2751,-0.283,-0.2882,-0.2902,-0.2938,-0.2946,-0.3039,-0.3055,-0.3115,-0.3167,-0.3181,-0.3178,-0.3213,-0.3298,-0.3297,-0.3295,-0.3217,-0.3209,-0.3203,0,0,0,0,0,-0.2584,-0.2593,-0.2624,-0.2643,-0.2763,-0.2829,-0.2845,-0.2916,-0.2937,-0.2946,-0.3006,-0.3052,-0.3168,-0.3171,-0.3188,-0.3186,-0.3299,-0.3297,-0.3295,-0.322,-0.3211,-0.3203,0,0,0,0,0,0,-0.2489,-0.2608,-0.2643,-0.2685,-0.2747,-0.2846,-0.2859,-0.2904,-0.2959,-0.2964,-0.3048,-0.3068,-0.3105,-0.315,-0.3152,-0.3206,-0.3239,-0.324,-0.3176,-0.3168,-0.3161,-0.3149,-0.3218,0,0,0,0,0,-0.2473,-0.2519,-0.2619,-0.2647,-0.2676,-0.2762,-0.2793,-0.2842,-0.2909,-0.2935,-0.2999,-0.306,-0.311,-0.3142,-0.3193,-0.3224,-0.3245,-0.3231,-0.3224,-0.3217,-0.3217,-0.3236,-0.3231,-0.3289,-0.3289,-0.3289,0,0,-0.2441,-0.2511,-0.2534,-0.2629,-0.2683,-0.2726,-0.2783,-0.2827,-0.2859,-0.2941,-0.2989,-0.3038,-0.3111,-0.315,-0.317,-0.3188,-0.3206,-0.3215,-0.321,-0.3213,-0.3234,-0.3228,-0.3223,-0.3288,-0.3288,-0.3288,0,0,-0.2403,-0.2462,-0.2491,-0.2544,-0.2625,-0.2682,-0.2689,-0.2782,-0.2819,-0.2868,-0.293,-0.2969,-0.3054,-0.3104,-0.3141,-0.3122,-0.3166,-0.3136,-0.31,-0.3117,-0.3113,-0.3109,-0.3102,-0.3098,-0.3136,-0.3136,-0.3136,0,-0.2352,-0.2422,-0.25,-0.254,-0.2579,-0.2657,-0.2686,-0.2733,-0.2826,-0.285,-0.287,-0.2979,-0.3034,-0.3085,-0.308,-0.3108,-0.3117,-0.3126,-0.3108,-0.3105,-0.3102,-0.3096,-0.3093,-0.3132,-0.3133,-0.3133,-0.3133,0,-0.2354,-0.2402,-0.2415,-0.2505,-0.2546,-0.258,-0.2661,-0.2693,-0.2738,-0.2793,-0.2842,-0.2911,-0.2977,-0.2993,-0.3037,-0.305,-0.3059,-0.3092,-0.3126,-0.3091,-0.3087,-0.3085,-0.3126,-0.3128,-0.3129,-0.313,0,0,-0.2261,-0.2394,-0.2398,-0.2439,-0.2535,-0.2572,-0.2609,-0.2676,-0.2701,-0.2762,-0.2795,-0.2865,-0.2896,-0.2938,-0.2988,-0.3003,-0.2983,-0.3035,-0.3038,-0.3022,-0.3001,-0.2974,-0.2971,-0.3013,-0.3013,-0.3013,-0.2994,0,-0.2238,-0.2311,-0.2382,-0.2428,-0.2473,-0.2547,-0.2579,-0.264,-0.2692,-0.2735,-0.2792,-0.284,-0.2878,-0.2904,-0.2922,-0.2982,-0.298,-0.2984,-0.3042,-0.3044,-0.3021,-0.2969,-0.2941,-0.292,-0.2993,-0.2993,-0.2993,0,-0.222,-0.228,-0.2331,-0.2423,-0.2444,-0.2472,-0.2539,-0.258,-0.265,-0.2686,-0.2732,-0.2786,-0.2827,-0.2857,-0.2914,-0.2915,-0.2943,-0.2976,-0.2977,-0.2984,-0.3015,-0.2974,-0.2915,-0.2911,-0.2991,-0.2991,-0.2991,0,-0.2146,-0.2239,-0.2282,-0.2315,-0.2423,-0.2441,-0.2486,-0.2557,-0.2593,-0.2651,-0.2674,-0.2735,-0.2768,-0.2814,-0.2882,-0.2897,-0.2931,-0.2967,-0.2961,-0.2959,-0.2964,-0.2962,-0.2908,-0.2983,-0.2983,-0.2983,-0.2983,0,-0.2111,-0.214,-0.2251,-0.2277,-0.231,-0.2391,-0.2421,-0.2473,-0.2535,-0.2571,-0.2639,-0.2671,-0.276,-0.2802,-0.2855,-0.2893,-0.2908,-0.2937,-0.2951,-0.2931,-0.2927,-0.295,-0.2952,-0.2982,-0.2982,-0.2982,-0.2983,0,-0.2034,-0.211,-0.2161,-0.2259,-0.2285,-0.2305,-0.2388,-0.2415,-0.2471,-0.2516,-0.2531,-0.2618,-0.2671,-0.2744,-0.2819,-0.2855,-0.2885,-0.2907,-0.2862,-0.287,-0.286,-0.2859,-0.2817,-0.2815,-0.2891,-0.2891,-0.289,0,-0.2007,-0.2031,-0.2132,-0.2162,-0.2206,-0.2253,-0.2291,-0.237,-0.2406,-0.2487,-0.2504,-0.2563,-0.2615,-0.2695,-0.2764,-0.2821,-0.2845,-0.2826,-0.2854,-0.2833,-0.2844,-0.2841,-0.2843,-0.2819,-0.2818,-0.2817,-0.2816,0,-0.195,-0.1987,-0.2039,-0.2104,-0.2147,-0.2202,-0.226,-0.228,-0.2371,-0.2407,-0.2464,-0.2504,-0.2581,-0.2638,-0.2705,-0.275,-0.2797,-0.2807,-0.2809,-0.2788,-0.276,-0.2774,-0.2843,-0.2807,-0.2808,-0.2809,-0.2809,-0.281,-0.1897,-0.1921,-0.1997,-0.2052,-0.2105,-0.2157,-0.2188,-0.2248,-0.2297,-0.2367,-0.2411,-0.2465,-0.2533,-0.2629,-0.2671,-0.2713,-0.2732,-0.2734,-0.2735,-0.2734,-0.2727,-0.2754,-0.2725,-0.2726,-0.2726,-0.2726,-0.2727,0,-0.1843,-0.1895,-0.1946,-0.2025,-0.2069,-0.2113,-0.2179,-0.2211,-0.2259,-0.232,-0.2369,-0.2433,-0.2489,-0.2562,-0.2622,-0.2642,-0.2665,-0.2655,-0.2653,-0.2663,-0.2707,-0.2699,-0.2635,-0.2635,-0.2635,-0.2635,-0.2635,-0.2635,-0.182,-0.1864,-0.1909,-0.1979,-0.2031,-0.2086,-0.2119,-0.2167,-0.2217,-0.2286,-0.2333,-0.2381,-0.2447,-0.2512,-0.2565,-0.2585,-0.2603,-0.2586,-0.2612,-0.2651,-0.266,-0.2668,-0.2661,-0.2589,-0.2589,-0.2565,-0.2564,-0.2564]},{"header":{"parameterUnit":"m.s-1","parameterCategory":1,"la1":30.2991,"la2":30.254,"lo1":-89.0895,"lo2":-89.0444,"dy":0.0017,"dx":0.0017,"nx":28,"ny":28,"refTime":"2024-02-03T09:00:00:Z","depth":0,"parameterNumber":3,"parameterNumberName":"V-component_of_WINDS"},"data":[0,0,0,0,0,0,0,0,0,0,0,0,0,0,0,0,0,0,0,0,0,0,0,0,0,0,0,0,0,0,0,0,0,0,0,0,0,0,0,0,0,0,0,0,0,0,0,0,0,0,0,0,0,0,0,0,0,0,-2.0851,-2.0852,0,-2.1,-2.1002,-2.1003,-2.1035,-2.1034,-2.1033,-2.1032,-2.1183,-2.1187,-2.1192,0,0,0,0,0,0,0,0,0,0,0,0,0,-2.0592,-2.0596,-2.0851,-2.0852,-2.0854,-2.1,-2.1002,-2.1004,-2.1035,-2.1034,-2.1032,-2.1031,-2.1181,-2.1187,-2.1193,0,0,0,0,0,0,0,0,0,0,0,0,0,-2.0719,-2.0598,-2.085,-2.0887,-2.0892,-2.0999,-2.1002,-2.1004,-2.1035,-2.1034,-2.1032,-2.103,-2.1179,-2.1186,-2.1194,-2.1274,0,0,-2.1217,-2.122,0,0,0,0,0,0,0,0,-2.0711,-2.0728,-2.088,-2.0885,-2.0891,-2.0997,-2.0966,-2.1095,-2.1036,-2.0981,-2.1032,-2.103,-2.1122,-2.1134,-2.1166,-2.1281,-2.1287,-2.1218,-2.1222,-2.1225,-2.1228,0,0,0,0,0,0,0,-2.0703,-2.0722,-2.091,-2.0882,-2.0889,-2.0896,-2.0913,-2.099,-2.1059,-2.0986,-2.0988,-2.1006,-2.1125,-2.1158,-2.117,-2.1289,-2.1217,-2.1224,-2.1229,-2.1232,-2.148,-2.1482,0,0,0,0,0,0,-2.0687,-2.0714,-2.0905,-2.0914,-2.0795,-2.0902,-2.0921,-2.0965,-2.1058,-2.1071,-2.1007,-2.1006,-2.1146,-2.1161,-2.1175,-2.1277,-2.1225,-2.1232,-2.1237,-2.1478,-2.148,-2.1483,0,0,0,0,0,0,-2.0682,-2.0704,-2.0899,-2.0815,-2.084,-2.0909,-2.0958,-2.0968,-2.1002,-2.1074,-2.1086,-2.1029,-2.1146,-2.1164,-2.125,-2.1283,-2.1236,-2.1243,-2.1475,-2.1479,-2.1481,-2.1481,0,0,0,0,0,0,-2.0674,-2.0702,-2.0733,-2.0816,-2.0845,-2.0971,-2.096,-2.0973,-2.1016,-2.1017,-2.1098,-2.111,-2.1146,-2.1238,-2.1257,-2.1292,-2.1249,-2.1473,-2.1477,-2.1481,-2.1478,-2.1483,-2.1488,0,0,0,0,0,-2.0665,-2.0726,-2.0735,-2.0757,-2.0885,-2.0973,-2.099,-2.103,-2.1018,-2.105,-2.1097,-2.1108,-2.1275,-2.1247,-2.1268,-2.1306,-2.1471,-2.1476,-2.148,-2.1476,-2.1482,-2.1488,0,0,0,0,0,0,-2.0645,-2.0737,-2.0748,-2.0838,-2.0898,-2.0978,-2.102,-2.1035,-2.1099,-2.1097,-2.1144,-2.1162,-2.1245,-2.1284,-2.125,-2.139,-2.1373,-2.1382,-2.1362,-2.1369,-2.1373,-2.1364,-2.1255,0,0,0,0,0,-2.0651,-2.0715,-2.0792,-2.0864,-2.0893,-2.0952,-2.0991,-2.1017,-2.1081,-2.1106,-2.1158,-2.1219,-2.1286,-2.1329,-2.1394,-2.1483,-2.1502,-2.152,-2.1525,-2.1528,-2.1536,-2.1589,-2.1598,-2.1498,-2.1498,-2.1498,0,0,-2.0664,-2.0723,-2.076,-2.0861,-2.0911,-2.0976,-2.0973,-2.1041,-2.1091,-2.1116,-2.1201,-2.1241,-2.1312,-2.1401,-2.1442,-2.1435,-2.1568,-2.1534,-2.1536,-2.1543,-2.1595,-2.1604,-2.1612,-2.1501,-2.15,-2.15,0,0,-2.0723,-2.0772,-2.0839,-2.0889,-2.0964,-2.1003,-2.1018,-2.1097,-2.1126,-2.1212,-2.1233,-2.1291,-2.1404,-2.1455,-2.1496,-2.1574,-2.1587,-2.1593,-2.162,-2.167,-2.1678,-2.1686,-2.1716,-2.1726,-2.1601,-2.1601,-2.1601,0,-2.073,-2.083,-2.0871,-2.094,-2.0985,-2.1011,-2.108,-2.1126,-2.1218,-2.1248,-2.1239,-2.1384,-2.1433,-2.1534,-2.1554,-2.1584,-2.1605,-2.1586,-2.1674,-2.1682,-2.1689,-2.1719,-2.173,-2.1601,-2.1601,-2.1601,-2.1601,0,-2.0836,-2.0905,-2.095,-2.104,-2.1089,-2.1157,-2.1209,-2.1254,-2.1275,-2.1314,-2.1402,-2.1462,-2.1541,-2.1567,-2.1587,-2.1672,-2.1666,-2.1664,-2.1649,-2.1698,-2.1727,-2.1739,-2.1602,-2.1602,-2.1602,-2.1601,0,0,-2.0888,-2.1,-2.1016,-2.1059,-2.1144,-2.1198,-2.1267,-2.1345,-2.1384,-2.1446,-2.1507,-2.1602,-2.1602,-2.1648,-2.1675,-2.1718,-2.178,-2.1713,-2.1715,-2.1725,-2.188,-2.1882,-2.1895,-2.1788,-2.179,-2.1792,-2.1875,0,-2.0959,-2.1085,-2.1124,-2.123,-2.1296,-2.1322,-2.1382,-2.1441,-2.1479,-2.154,-2.1582,-2.1651,-2.1644,-2.1672,-2.1717,-2.1763,-2.1812,-2.1757,-2.1846,-2.1849,-2.1831,-2.1909,-2.1912,-2.1987,-2.1886,-2.1888,-2.1889,0,-2.1059,-2.1125,-2.1237,-2.1316,-2.1345,-2.1399,-2.1475,-2.1532,-2.16,-2.1625,-2.1676,-2.17,-2.1773,-2.1751,-2.1855,-2.1817,-2.1855,-2.1883,-2.1887,-2.1899,-2.1874,-2.1926,-2.2012,-2.2024,-2.1907,-2.1905,-2.1904,0,-2.1089,-2.1205,-2.1289,-2.1323,-2.1416,-2.1454,-2.1494,-2.156,-2.1605,-2.1671,-2.1701,-2.1773,-2.1814,-2.1869,-2.1912,-2.1892,-2.2012,-2.1993,-2.2036,-2.2036,-2.2063,-2.2061,-2.2159,-2.2082,-2.2082,-2.2082,-2.2082,0,-2.1166,-2.1234,-2.1304,-2.1355,-2.1433,-2.1477,-2.1553,-2.1594,-2.1653,-2.1713,-2.1738,-2.1794,-2.1845,-2.1908,-2.1941,-2.2023,-2.204,-2.2063,-2.2072,-2.2063,-2.206,-2.2091,-2.2088,-2.2085,-2.2084,-2.2084,-2.2083,0,-2.1214,-2.1262,-2.1356,-2.1436,-2.1458,-2.1512,-2.1581,-2.1633,-2.1672,-2.1748,-2.1768,-2.1829,-2.1905,-2.1952,-2.2046,-2.2069,-2.216,-2.2165,-2.2138,-2.2143,-2.2184,-2.2181,-2.2307,-2.2327,-2.2234,-2.2235,-2.2236,0,-2.1261,-2.1315,-2.1402,-2.1445,-2.1486,-2.1554,-2.16,-2.1645,-2.1693,-2.1774,-2.1816,-2.1893,-2.1957,-2.2076,-2.2129,-2.2202,-2.2211,-2.225,-2.2223,-2.2213,-2.2216,-2.2213,-2.222,-2.2256,-2.2257,-2.2257,-2.2258,0,-2.1341,-2.1363,-2.143,-2.1506,-2.1561,-2.1622,-2.1683,-2.1717,-2.1772,-2.1824,-2.1902,-2.1952,-2.205,-2.2127,-2.2205,-2.2246,-2.2262,-2.2266,-2.228,-2.2273,-2.2257,-2.2269,-2.2154,-2.2263,-2.2263,-2.2262,-2.2262,-2.2262,-2.1393,-2.1442,-2.1512,-2.1586,-2.1637,-2.1694,-2.1747,-2.1793,-2.1859,-2.1944,-2.1966,-2.2048,-2.2115,-2.2221,-2.2264,-2.2329,-2.2324,-2.2344,-2.235,-2.2355,-2.2357,-2.2244,-2.2343,-2.2343,-2.2343,-2.2343,-2.2343,0,-2.1477,-2.1523,-2.159,-2.1676,-2.1735,-2.1744,-2.1813,-2.1861,-2.1934,-2.1995,-2.2058,-2.2148,-2.2223,-2.2282,-2.2359,-2.24,-2.2409,-2.2419,-2.2418,-2.2428,-2.2356,-2.2337,-2.241,-2.241,-2.241,-2.241,-2.241,-2.241,-2.1527,-2.1614,-2.1644,-2.1755,-2.1801,-2.1883,-2.1922,-2.1975,-2.2024,-2.2124,-2.2187,-2.2225,-2.2286,-2.2368,-2.2437,-2.2453,-2.2481,-2.249,-2.2507,-2.2439,-2.2432,-2.2425,-2.2408,-2.2495,-2.2495,-2.2574,-2.2574,-2.2575]}]]